www.pogodaiklimat.ru

Погода и климат >> Архив погоды >> Кот-д'Ивуар >> Sassandra


ПОГОДА в Sassandra

  • Прогноз погоды в Sassandra
  • Монитор погоды в Sassandra
  • Климат города

АРХИВ ПОГОДЫ в Sassandra

Время (UTC), дата Ветер
(напр.,м/с)
 
Видим.   Явления Облачность Т
(С)
Тd
(С)
f
(%)
Тe
(С)
Тes
(С)
Комфортность P
(гПа)
Po
(гПа)
Тmin
(С)
Tmax
(С)
R
(мм)
R24
(мм)
S
(см)
12 11.12 В 1 6000 м 1/1 450 м
[Cu med, cong]
+30.0 +24.5 72 +42 +61 опасность
перегрева
1011.4 1004.1
15 11.12 Ю 1 6000 м ясно +30.4 +24.0 69 +42 +54 опасность
перегрева
1009.2 1001.9
18 11.12 Ю 1 6000 м 1/1 450 м
[Sc]
+27.9 +24.0 79 +39 +39 очень
душно
1010.0 1002.7 +31.2
21 11.12 ЮВ 1 6000 м ясно +27.9 +24.0 79 +39 +39 очень
душно
1012.4 1005.0
00 12.12 Ю 1 6000 м ясно +26.6 +26.6 100 +41 +41 опасность
перегрева
1011.9 1004.5
03 12.12 СЗ 1 6000 м ясно +24.6 +23.7 95 +33 +33 очень
душно
1010.3 1002.9
06 12.12 СЗ 1 6000 м ясно +24.0 +23.3 96 +32 +32 очень
душно
1010.7 1003.2 +23.6
09 12.12 СЗ 1 8000 м ясно +25.9 +24.3 91 +36 +44 очень
душно
1012.8 1005.4
12 12.12 Ю 1 8000 м 3/3 450 м
[Cu med, cong]
+30.7 +23.9 67 +42 +57 опасность
перегрева
1011.7 1004.4
15 12.12 Ю 1 6000 м 3/3 450 м
[Cu med, cong]
+30.7 +24.6 70 +43 +52 опасность
перегрева
1009.6 1002.3
18 12.12 Ю 1 10 км 8/1 450 м
[Cu med, cong Ac trans]
+28.0 +24.4 81 +39 +39 очень
душно
1010.7 1003.4 +31.5
21 12.12 Ю 1 6000 м ясно +27.2 +23.9 82 +37 +37 очень
душно
1012.7 1005.3
00 13.12 З 1 6000 м ясно +25.9 +24.2 90 +36 +36 очень
душно
1012.5 1005.1
03 13.12 СЗ 1 6000 м ясно +24.7 +23.7 94 +34 +34 очень
душно
1011.2 1003.8
06 13.12 СЗ 1 6000 м 8/0
[Ac und]
+24.6 +23.4 93 +33 +33 очень
душно
1011.3 1003.9 +24.4
09 13.12 СЗ 1 6000 м 8/0
[Ac trans]
+27.3 +24.0 82 +38 +42 очень
душно
1012.9 1005.5
12 13.12 ЮВ 1 6000 м 8/0
[Ac trans]
+31.2 +24.3 67 +43 +55 опасность
перегрева
1011.8 1004.5
15 13.12 Ю 1 6000 м 9/0
[Ci sp]
+30.9 +23.1 63 +41 +51 опасность
перегрева
1009.5 1002.2
18 13.12 Ю 1 6000 м 6/0
[Ci sp]
+28.9 +24.8 79 +41 +42 опасность
перегрева
1009.7 1002.4 +32.3
21 13.12 Ю 1 6000 м 4/0
[Ci sp]
+27.7 +25.3 87 +40 +40 очень
душно
1012.4 1005.0
00 14.12 ЮВ 1 6000 м ясно +27.0 +24.9 88 +39 +39 очень
душно
1012.5 1005.1
03 14.12 СЗ 1 6000 м ясно +25.7 +24.7 94 +36 +36 очень
душно
1010.8 1003.4
06 14.12 С 1 6000 м в посл. час дождь 9/9 400 м
[Sc]
+25.5 +24.8 96 +36 +36 очень
душно
1011.4 1004.0 +25.2 1
09 14.12 СЗ 1 6000 м {дождь} 9/6 450 м
[Sc Ac As]
+26.5 +25.8 96 +39 +41 очень
душно
1013.3 1005.9
12 14.12 ЮВ 1 8000 м {дождь} 9/6 450 м
[Sc Ci ing]
+31.2 +24.6 68 +44 +51 опасность
перегрева
1012.1 1004.8
15 14.12 Ю 2 6000 м ясно +31.4 +25.3 70 +45 +56 опасность
перегрева
1009.8 1002.5
18 14.12 Ю 1 6000 м 5/1 450 м
[Cb cap Ci ing]
+28.4 +25.2 83 +41 +41 опасность
перегрева
1010.7 1003.4 +32.5
21 14.12 Ю 2 6000 м 9/0
[Ci sp]
+27.9 +25.7 88 +41 +41 опасность
перегрева
1013.5 1006.1
00 15.12 ЮЗ 1 8000 м ясно +27.1 +24.8 87 +39 +39 очень
душно
1013.3 1005.9
06 15.12 Ю 1 8000 м 6/6 450 м
[Sc]
+26.4 +25.0 92 +38 +38 очень
душно
1011.9 1004.5 +25.5
09 15.12 Ю 1 8000 м 9/9 450 м
[Cu med, cong]
+29.4 +24.9 77 +42 +43 опасность
перегрева
1013.5 1006.2
12 15.12 Ю 1 8000 м 6/6 450 м
[Cu med, cong]
+31.5 +25.2 69 +45 +53 опасность
перегрева
1011.8 1004.5
15 15.12 Ю 2 8000 м 3/3 450 м
[Cu med, cong]
+30.9 +25.2 72 +45 +52 опасность
перегрева
1009.6 1002.3
18 15.12 Ю 2 8000 м 6/3 450 м
[Cb cap Ci ing]
+28.7 +24.7 79 +41 +41 опасность
перегрева
1009.6 1002.3 +32.1
21 15.12 Ю 1 8000 м 3/3 450 м
[Sc]
+27.4 +24.7 85 +39 +39 очень
душно
1012.5 1005.1
00 16.12 Ю 1 8000 м 1/1 450 м
[Sc]
+27.1 +23.2 79 +36 +36 очень
душно
1012.2 1004.8
03 16.12 СЗ 1 8000 м 1/1 450 м
[Sc]
+25.6 +24.7 95 +36 +36 очень
душно
1010.1 1002.7
06 16.12 СЗ 1 8000 м 6/0
[Ci sp]
+25.0 +24.3 96 +35 +35 очень
душно
1010.8 1003.4 +24.8
09 16.12 СЗ 1 8000 м 5/3 450 м
[Cu med, cong Ac trans]
+27.2 +25.2 89 +39 +44 очень
душно
1012.8 1005.4
12 16.12 Ю 2 8000 м 8/8 450 м
[Cu med, cong]
+30.2 +25.4 76 +44 +48 опасность
перегрева
1011.5 1004.2
15 16.12 Ю 1 10 км 6/6 450 м
[Cb cap]
+29.0 +24.8 78 +41 +46 опасность
перегрева
1009.6 1002.3
18 16.12 Ю 1 10 км 9/3 450 м
[Cb cap Ac cuf]
+27.7 +25.3 87 +40 +40 очень
душно
1010.4 1003.1 +32.1
21 16.12 СВ 4 8000 м сильная гроза, ливневой дождь 9/9 400 м
[Cb cap]
+23.7 +22.8 95 +31 +31 очень
душно
1014.3 1006.8
00 17.12 СЗ 1 8000 м гроза, ливневой дождь 9/9 400 м
[Cb cap]
+24.6 +23.6 94 +33 +33 очень
душно
1012.6 1005.2 44
03 17.12 В 1 8000 м гроза без осадков {дождь} 9/5 400 м
[Cb cap Ac As]
+24.4 +23.7 96 +33 +33 очень
душно
1012.0 1004.6
06 17.12 З 1 8000 м гроза без осадков {дождь} 8/8 400 м
[Cb cap]
+25.1 +23.9 93 +34 +34 очень
душно
1012.0 1004.6 +23.3 45
09 17.12 ЮВ 1 8000 м {гроза} 9/5 450 м
[Cu med, cong Ac As]
+27.0 +22.3 75 +35 +37 очень
душно
1013.8 1006.4
12 17.12 ЮВ 1 8000 м {гроза} 9/4 450 м
[Cu med, cong Ac As]
+29.0 +22.8 69 +38 +44 очень
душно
1012.6 1005.3
15 17.12 Ю 1 8000 м 9/3 450 м
[Cu med, cong Ac trans]
+29.3 +24.3 75 +41 +45 опасность
перегрева
1010.0 1002.7
18 17.12 Ю 1 8000 м 9/1 450 м
[Cu med, cong Ac trans]
+27.0 +23.7 82 +37 +37 очень
душно
1010.4 1003.0 +30.7
21 17.12 Ю 1 8000 м 9/1 450 м
[Cu med, cong Ac trans]
+26.5 +23.9 86 +37 +37 очень
душно
1012.4 1005.0
00 18.12 Ю 1 8000 м 8/1 450 м
[Cu med, cong Ac trans]
+26.5 +24.5 89 +37 +37 очень
душно
1012.5 1005.1
03 18.12 СЗ 1 8000 м 8/0
[Ac trans]
+25.5 +24.2 93 +35 +35 очень
душно
1011.1 1003.7
06 18.12 СЗ 1 8000 м 9/0
[Ac trans]
+25.0 +24.3 96 +35 +35 очень
душно
1011.5 1004.1 +24.5
09 18.12 З 1 8000 м 8/3 450 м
[Cu med, cong Ac trans]
+28.0 +25.6 87 +41 +44 опасность
перегрева
1012.8 1005.4

 

Местоположение метеостанции Sassandra (Кот-д'Ивуар): широта 4.95 долгота -6.08 высота над уровнем моря 66 м.

В архиве по умолчанию представлена погода в Sassandra за последнюю неделю. Архивные данные за месяц целиком и за предыдущие месяцы, начиная с января 2011 года, Вы можете получить, выбрав интересующий диапазон дат из раскрывающегося списка и нажав кнопку "Ввод!".

Внимание! Время в таблицах - всемирное. Для получения местного времени необходимо прибавить поправку, которая в Sassandra равна 0 ч.

Смотрите также архив погоды в соседних городах и на ближайших метеорологических станциях:

Погода в San Pedro (Кот-д'Ивуар) (67 км)
Погода в Gagnoa (Кот-д'Ивуар) (132 км)
Погода в Tabou (Кот-д'Ивуар) (155 км)
Погода в Daloa (Кот-д'Ивуар) (218 км)
Погода в Yamoussoukro (Кот-д'Ивуар) (231 км)
Погода в Abidjan (Кот-д'Ивуар) (241 км)
Погода в Dimbokro (Кот-д'Ивуар) (243 км)
Погода в Adiake (Кот-д'Ивуар) (310 км)
Погода в Man (Кот-д'Ивуар) (314 км)
Погода в Bouake (Кот-д'Ивуар) (329 км)

Пояснения к столбцам:

Ветер - указаны скорость ветра в м/с - средняя за 10 мин, порывы в срок и между сроками (в фигурных скобках) и направление, откуда дует ветер: С - северный, СВ - северо-восточный, В - восточный, ЮВ - юго-восточный, Ю - южный, ЮЗ - юго-западный, З - западный, СЗ - северо-западный.
Видимость - горизонтальная дальность видимости в метрах или километрах. При видимости от 1 до 10 км при отсутствии осадков обычно наблюдается дымка, при ухудшении видимости до 1 км и менее - туман. В сухую погоду видимость может ухудшаться дымом, пылью или мглою.
Явления - указаны атмосферные явления, наблюдавшиеся в срок или в последний час перед сроком; фигурными скобками обозначены явления, наблюдавшиеся между сроками (за 1-3 часа до срока); квадратными скобками обозначены град или гололедные отложения с указанием их диаметра в мм.
Облачность - указаны через наклонную черту общая и нижняя облачность в баллах и высота нижней границы облаков в метрах; квадратными скобками обозначены формы облаков: Ci - перистые, Cs - перисто-слоистые, Cc - перисто-кучевые, Ac - высококучевые, As - высокослоистые, Sc - слоисто-кучевые, Ns - слоисто-дождевые, Cu - кучевые, Cb - кучево-дождевые. Подробнее классификацию облаков см. в Атласе облаков (PDF).
T - Температура воздуха - температура, измеренная на высоте 2 м над землей.
Td - Температура точки росы - температура, при понижении до которой содержащийся в воздухе водяной пар достигнет насыщения.
f - Относительная влажность воздуха - влажноcть воздуха, измеренная на высоте 2 м над землей.
Te - Эффективная температура - температура, которую ощущает одетый по сезону человек в тени. Характеристика душности погоды. При расчете учитывается влияние влажности воздуха и скорости ветра на теплоощущения человека.
Tes - Эффективная температура на солнце - температура, которую ощущает человек, с поправкой на солнечный нагрев. Характеристика знойности погоды. Зависит от высоты солнца над горизонтом, облачности и скорости ветра. Ночью, в пасмурную погоду, а также при ветре 12 м/с и более поправка равна нулю.
P - Атмосферное давление - приведенное к уровню моря атмосферное давление.
Po - Атмосферное давление - измеренное на уровне метеостанции атмосферное давление.
Tmin - Минимальная температура - минимум температуры воздуха на высоте 2 м над землей.
Tmax - Максимальная температура - максимум температуры воздуха на высоте 2 м над землей.
R - Количество осадков - Количество выпавших осадков за период времени, мм. При наведении курсора мыши на число - период времени, за который выпало указанное количество осадков.
R24 - Количество осадков - Количество выпавших осадков за 24 часа, мм.
S - Снежный покров - Высота снежного покрова, см. При наведении курсора мыши на число - состояние снежного покрова и степень покрытия местности в баллах.